Wind_Speed
9 11 11 10 10 11 12 13 16 20 21 20 17 17 16 13 11 11 11 11 11 11 13 13 13 12 12 12 12 13 15 16 16 16 15 14 15 13 13 15 14 12 11 11 11 11 11 11 11 11 11 11 12 11 9 8 8 8 10 10 10 10
10 11 12 14 14 13 13 12 12 15 18 21 21 17 17 17 14 13 13 13 13 13 14 15 14 13 12 12 13 13 14 16 16 16 15 15 15 14 14 14 14 13 12 12 11 11 12 11 11 11 11 12 12 11 9 9 9 8 10 11 11 10
11 13 14 15 17 15 14 13 12 13 13 15 21 19 18 18 17 15 15 15 16 15 16 16 15 14 13 13 14 13 13 16 17 16 16 15 15 15 14 15 15 14 12 11 11 11 11 11 11 11 12 13 12 10 10 10 9 9 10 11 11 11
14 15 16 17 17 17 17 15 13 14 13 12 17 21 22 21 20 20 19 19 18 17 17 17 17 16 14 16 16 13 14 17 18 17 17 16 16 15 15 15 15 14 11 10 11 11 10 11 11 11 12 12 11 11 10 10 9 9 10 11 11 11
16 17 18 19 19 18 18 18 16 15 14 13 13 17 23 24 23 23 23 23 20 18 19 18 18 18 17 18 16 14 17 19 19 18 18 17 16 16 15 15 14 13 11 10 11 10 10 10 10 11 12 12 11 11 11 10 9 10 11 11 11 11
15 18 19 20 21 20 19 19 19 16 15 14 14 17 21 24 24 23 25 23 23 21 20 20 19 19 20 18 17 17 20 20 19 19 18 17 17 16 15 15 13 12 12 11 11 10 10 10 11 11 12 12 11 11 11 11 10 10 11 12 12 11
12 14 17 19 21 22 20 19 20 18 16 16 16 18 20 23 24 24 26 25 24 24 21 21 20 20 20 19 19 20 20 20 20 20 19 17 17 16 15 15 13 13 13 12 11 10 10 10 11 11 11 12 11 10 11 11 10 10 11 12 12 12
9 9 11 14 17 19 19 20 19 17 18 19 18 19 20 23 25 27 28 28 25 25 23 23 21 21 21 22 23 22 22 22 21 20 19 18 17 16 15 15 14 14 14 13 12 10 10 10 10 10 11 11 11 11 11 11 11 10 11 12 12 12
8 8 8 10 12 13 14 17 18 17 18 20 21 20 22 24 26 30 30 30 28 25 26 25 22 21 23 25 26 25 24 23 22 21 20 19 18 17 16 16 15 15 14 12 12 11 10 10 10 10 10 11 11 11 10 11 11 10 10 12 12 12
8 8 8 9 10 10 11 13 15 18 19 20 22 22 23 23 25 30 31 31 29 27 27 27 24 23 25 26 26 26 26 25 23 22 21 20 19 18 17 17 16 16 14 12 11 10 10 10 9 10 10 11 11 11 10 11 11 10 10 11 11 11
9 8 8 10 11 11 12 13 15 18 21 23 24 24 25 25 25 27 29 31 32 33 30 27 25 26 27 26 27 27 27 26 25 23 23 22 21 19 18 17 16 16 14 11 9 9 10 10 9 9 10 10 11 11 10 10 11 10 10 10 9 10
9 9 10 11 13 13 13 15 16 19 22 25 26 28 29 28 28 27 27 30 33 35 30 27 27 28 28 28 29 28 27 27 26 25 24 23 23 21 19 18 16 15 13 10 8 8 8 9 9 9 9 9 11 11 10 11 11 10 10 10 9 9
8 10 11 12 14 14 14 15 17 19 22 24 26 29 30 28 30 28 26 29 32 35 31 28 30 30 28 29 29 28 28 28 27 26 25 24 23 22 20 18 16 15 13 10 8 7 7 8 8 8 8 9 10 10 10 10 11 10 10 10 8 9
8 10 11 13 15 14 14 15 17 19 22 24 25 28 29 30 33 29 27 30 33 36 34 31 32 31 30 30 30 30 29 28 27 26 25 24 23 22 21 19 16 15 13 11 9 8 7 7 8 8 8 8 9 9 10 10 10 10 10 9 8 8
9 11 12 13 14 15 14 15 17 19 20 22 24 27 29 31 34 31 29 33 35 36 36 34 34 33 31 31 32 31 30 29 28 26 25 25 24 22 21 20 17 15 14 12 11 9 8 7 7 8 8 7 8 9 9 9 10 10 10 9 8 7
11 12 13 13 14 14 15 16 18 19 19 20 23 25 29 32 34 33 30 33 37 38 37 36 36 35 33 33 33 32 32 31 28 27 26 25 24 22 22 21 19 16 14 13 12 10 8 7 7 8 8 7 8 8 9 9 9 10 9 9 8 7
11 13 14 14 14 14 14 15 18 19 18 19 21 24 28 30 31 33 32 35 39 40 38 38 37 36 34 33 33 33 33 31 29 29 27 25 24 23 22 22 20 18 15 14 13 11 9 8 6 7 8 7 7 8 8 8 8 9 9 8 8 7
12 14 15 15 15 14 14 14 16 17 18 18 20 22 26 28 30 34 35 36 40 41 40 40 39 37 35 34 34 35 35 33 30 30 28 26 26 24 23 23 21 18 16 15 14 11 10 8 7 7 7 8 7 7 7 7 7 7 7 7 7 7
14 14 15 16 15 15 14 14 13 14 16 18 20 21 25 28 30 34 36 34 37 42 41 41 40 37 36 35 35 37 36 34 32 31 29 28 27 25 25 23 21 20 18 17 14 11 11 10 8 7 8 8 8 8 7 6 6 6 6 6 7 7
17 16 15 16 16 15 15 14 14 13 14 16 19 21 24 26 26 30 35 31 32 40 43 43 41 38 37 36 35 35 34 33 34 33 31 30 28 27 26 24 22 21 19 19 16 13 13 12 10 9 9 9 8 8 7 6 5 4 4 4 6 6
17 18 16 15 15 15 15 15 14 13 13 14 17 18 20 23 25 27 32 30 29 38 44 45 42 40 39 37 36 34 33 34 35 33 31 31 29 28 27 25 23 21 21 21 18 14 14 13 12 11 11 10 9 8 7 6 5 3 3 3 4 5
17 19 19 16 14 14 15 15 14 13 12 12 14 15 15 19 25 29 30 30 30 37 45 47 43 42 41 38 37 35 34 35 34 34 33 32 31 30 28 27 25 24 23 22 19 17 16 15 14 13 13 13 11 9 7 7 5 4 2 2 3 3
18 18 19 18 15 13 14 15 14 13 11 12 11 11 12 16 25 30 32 31 30 34 44 49 45 43 43 39 38 37 36 36 35 36 35 33 33 31 30 29 27 26 25 23 21 20 19 18 15 13 14 13 11 10 9 9 7 5 4 3 3 3
18 16 17 17 15 13 14 15 14 12 11 11 10 9 10 14 22 30 33 33 32 33 41 48 47 44 44 41 39 39 38 38 38 38 36 34 33 32 31 30 27 27 27 25 25 23 22 20 17 16 16 15 13 11 10 10 9 6 4 4 3 2
16 14 15 15 14 12 13 14 14 13 12 11 10 8 8 11 16 26 33 33 32 35 40 47 50 47 46 44 42 41 40 40 39 39 38 36 35 34 33 30 28 29 28 27 27 25 23 22 19 18 18 17 13 12 10 8 7 6 5 4 4 3
16 13 12 13 14 12 12 14 14 13 12 11 9 6 6 8 13 19 26 28 29 35 41 47 52 51 49 48 45 43 42 42 41 40 38 37 36 35 34 31 30 30 29 28 28 27 26 25 21 20 20 16 12 12 12 7 5 7 7 5 4 4
16 13 12 12 13 13 12 13 14 13 13 11 8 7 5 7 13 16 18 22 26 34 42 47 53 55 53 50 46 43 42 42 41 39 37 36 35 35 33 32 31 31 29 29 29 28 27 26 23 22 22 17 14 15 11 8 7 8 7 8 8 6
17 14 13 11 12 14 12 12 14 14 13 11 8 9 8 9 13 18 20 20 22 30 40 46 51 55 53 50 46 42 40 38 37 36 36 36 35 34 33 33 33 31 30 30 30 29 28 27 25 23 21 18 17 16 11 9 10 10 9 9 9 9
17 14 13 12 12 13 14 13 14 15 14 12 10 9 10 11 13 17 22 21 17 23 34 41 47 52 53 49 45 42 39 37 36 35 36 37 36 34 35 34 33 31 31 31 29 29 29 27 26 25 23 22 20 18 15 15 14 12 11 10 8 8
16 14 13 12 11 12 14 14 15 16 16 13 12 11 10 11 12 15 22 23 18 20 31 40 46 50 52 51 45 41 39 38 39 36 34 35 35 35 35 34 32 31 31 30 30 30 29 27 26 25 23 22 20 18 18 17 15 14 13 11 10 9
15 14 13 12 12 11 12 15 16 17 18 16 13 13 12 11 12 13 19 23 21 21 30 40 45 48 51 52 46 41 39 38 40 39 34 33 34 35 35 34 33 32 31 30 31 30 29 28 26 24 22 22 21 20 19 18 17 16 15 14 13 11
15 14 13 12 11 12 10 13 16 18 19 18 16 14 13 13 14 13 14 18 20 21 28 33 38 45 52 53 47 43 41 39 41 42 36 34 35 35 35 34 33 32 32 31 32 30 29 29 27 25 25 24 23 22 21 20 19 19 17 16 15 13
14 14 14 12 11 12 11 10 14 18 19 20 18 16 14 13 14 15 14 16 19 22 27 29 33 42 50 52 48 45 43 42 43 45 39 34 35 35 33 32 32 32 33 33 33 32 31 30 28 27 27 26 25 23 22 22 21 20 19 18 17 15
14 14 14 13 11 11 11 10 11 16 20 21 20 18 17 15 14 15 15 16 18 22 28 32 35 41 47 50 48 45 44 45 45 43 38 34 34 35 34 33 33 33 33 34 35 34 32 31 30 29 28 28 27 25 24 24 23 21 20 19 19 17
15 14 13 13 12 10 10 10 9 13 19 22 21 20 19 17 15 15 15 15 17 22 27 33 36 40 47 51 49 47 47 46 42 37 35 34 34 34 34 34 34 34 34 35 35 34 34 33 32 32 31 30 28 27 25 24 23 22 21 21 20 19
15 13 12 12 11 10 10 10 9 10 16 21 22 22 21 19 18 16 15 15 16 20 23 29 33 36 46 53 51 50 49 44 39 36 34 35 38 37 34 34 35 35 35 35 35 34 34 34 34 34 33 32 30 29 28 26 24 23 22 22 21 21
15 14 13 12 10 9 10 10 9 9 14 19 21 22 22 21 20 19 17 16 16 17 19 23 27 30 39 51 52 50 46 39 38 39 36 35 41 42 36 34 36 35 36 37 36 36 35 35 35 35 36 36 33 31 30 29 27 25 25 24 23 23
Wind_Direction
312 310 307 299 280 274 288 293 297 292 276 265 260 263 263 246 224 210 210 207 203 198 193 196 196 194 192 188 183 180 177 176 176 173 174 167 158 165 163 148 140 135 127 120 112 107 105 102 97 91 83 75 69 69 83 93 96 110 116 117 116 116
291 293 292 292 287 280 286 294 305 303 287 265 250 254 262 255 238 218 214 211 206 200 196 198 199 197 189 186 185 182 182 178 176 176 174 168 161 166 167 152 141 135 127 122 116 107 101 98 98 94 83 73 69 70 84 94 97 109 116 116 114 115
271 273 274 278 280 278 281 281 282 290 290 261 246 255 263 260 250 228 214 214 212 204 198 198 197 195 188 185 185 182 188 184 177 177 176 170 164 167 167 154 143 134 131 129 119 108 99 96 96 94 82 74 72 76 83 91 98 108 115 116 113 117
266 264 264 268 270 271 274 272 267 274 280 264 253 259 260 258 257 243 219 206 209 208 201 198 196 197 194 189 186 186 195 190 180 179 177 172 166 167 166 154 145 138 135 126 111 106 102 97 96 91 83 77 76 79 83 88 97 110 117 115 112 115
271 265 262 264 266 267 267 267 266 266 269 265 259 259 257 255 257 252 230 205 198 208 206 200 200 200 197 194 193 195 196 190 184 181 177 173 167 167 167 156 149 143 137 120 108 109 105 100 98 93 87 83 79 80 83 88 95 109 117 114 110 114
273 269 264 260 261 264 265 265 262 258 256 256 249 249 254 253 253 251 244 220 193 200 212 206 205 202 195 197 202 199 194 189 187 184 179 174 170 169 166 157 150 143 135 126 120 117 109 105 101 96 93 89 85 83 85 89 93 103 112 114 113 118
276 275 271 263 259 260 264 265 261 256 250 247 239 236 244 248 249 246 247 237 201 192 210 210 203 203 200 200 202 196 191 190 189 187 182 177 175 174 168 158 152 143 136 131 129 125 116 112 107 101 97 94 92 89 89 89 92 100 109 114 117 124
283 280 281 274 266 261 260 261 262 259 248 244 236 230 235 236 239 240 241 243 221 193 197 208 203 203 207 202 196 192 189 191 192 188 184 180 178 178 170 159 154 147 141 136 132 131 123 115 110 105 99 98 97 94 93 92 92 98 107 114 119 126
291 285 288 284 281 275 265 257 256 255 246 244 240 231 237 237 231 232 236 241 234 208 196 201 204 203 203 199 189 187 190 192 192 188 184 181 179 179 172 163 158 150 145 141 137 136 129 120 115 109 102 100 100 98 96 95 94 95 103 111 119 126
295 287 288 286 284 281 272 260 250 248 244 244 244 237 241 246 235 229 234 239 239 232 211 195 198 200 200 200 190 186 191 192 192 188 183 182 179 179 175 168 163 154 146 143 143 141 133 126 120 113 106 103 102 101 98 97 96 95 101 105 115 124
297 289 287 285 280 275 269 262 251 245 244 244 246 244 239 239 237 231 234 238 238 238 219 191 192 199 200 201 194 190 192 192 193 189 183 182 181 179 176 172 167 156 145 143 149 150 141 132 126 118 110 106 103 102 101 99 96 94 100 104 110 118
295 290 286 283 280 278 270 261 254 246 243 242 241 244 242 234 233 232 233 236 235 235 217 190 193 199 201 203 197 194 193 192 193 190 187 185 183 179 177 176 168 154 145 150 158 156 150 140 132 125 118 110 104 104 104 103 101 98 100 106 113 117
288 286 283 281 280 280 276 264 253 246 243 242 238 240 244 238 232 228 228 230 231 230 216 195 197 199 201 204 200 196 195 195 195 192 190 189 186 181 181 180 167 152 149 161 168 161 161 153 142 135 127 119 110 106 107 106 106 102 100 104 113 117
288 284 278 278 280 280 280 271 256 247 244 242 240 237 237 235 232 226 220 222 224 225 215 199 199 200 201 203 201 198 198 199 197 195 193 191 190 185 184 181 168 158 158 168 176 170 168 168 157 145 136 128 119 110 107 107 105 101 98 98 103 110
288 287 280 276 277 279 280 277 264 253 247 243 242 238 235 232 232 227 218 216 219 219 212 201 199 200 200 202 202 199 199 200 198 198 196 194 194 188 185 183 174 169 168 176 184 177 173 179 171 155 145 136 126 116 109 107 106 102 98 93 92 96
287 285 282 277 275 277 278 279 273 263 255 248 245 240 235 230 229 227 218 214 215 211 206 201 200 201 200 201 204 201 200 200 198 201 200 197 197 192 188 184 179 179 180 188 191 181 180 187 182 166 155 145 134 124 115 109 107 105 101 99 95 88
280 282 281 278 274 273 273 276 278 274 266 256 251 244 236 231 228 227 221 217 214 207 202 201 200 202 202 203 204 203 202 200 197 202 204 200 200 197 192 187 183 185 189 200 199 181 182 194 188 181 170 159 146 132 126 120 113 107 104 105 105 97
280 278 280 279 277 274 269 269 276 278 272 261 253 246 239 232 225 224 224 221 215 206 200 200 200 201 202 203 203 203 204 201 198 202 205 203 202 200 198 193 189 192 192 205 210 184 181 198 194 192 185 173 160 144 139 134 124 114 109 111 111 107
294 283 280 281 280 278 274 268 270 275 272 264 254 247 242 232 223 221 223 221 215 208 200 198 199 198 200 202 203 205 203 200 199 201 205 206 204 202 203 199 197 201 197 204 215 195 187 199 196 195 193 184 172 157 151 147 135 121 115 117 115 112
304 295 285 281 280 278 278 275 274 278 276 266 258 253 246 237 228 221 218 216 213 208 199 196 198 197 198 201 204 208 204 200 202 201 203 208 207 204 205 205 205 207 207 206 210 204 195 197 199 201 197 190 181 169 161 158 148 131 124 121 112 109
304 301 293 285 279 274 273 275 276 281 281 270 259 258 254 243 234 222 214 213 212 209 200 193 196 196 196 200 203 206 205 204 205 202 203 208 210 208 205 208 210 211 217 214 211 210 203 199 203 203 200 194 186 180 173 167 162 147 135 119 109 104
304 298 296 293 285 273 266 267 269 273 279 277 265 258 255 241 232 224 217 213 211 214 206 193 193 197 195 200 203 202 203 206 206 204 205 207 211 212 208 210 213 214 222 222 215 213 212 213 208 203 207 201 187 184 187 179 174 166 153 134 122 112
310 297 293 294 291 278 263 261 266 267 270 277 271 259 254 239 227 222 217 215 213 214 207 193 192 199 197 198 203 202 202 204 205 207 207 207 211 214 212 212 215 218 222 224 221 214 216 223 218 210 214 211 192 188 197 189 179 181 171 157 149 136
317 301 291 288 288 280 264 257 259 264 266 268 263 254 256 242 228 223 218 217 216 211 205 196 193 198 199 197 201 202 203 203 204 208 209 208 211 216 217 216 218 222 222 223 224 219 217 221 221 220 217 211 199 194 204 193 177 184 188 175 166 151
323 308 291 282 279 275 265 255 251 258 263 266 260 249 258 247 227 222 219 219 218 212 208 202 196 197 199 198 200 202 203 204 205 207 208 209 211 216 220 220 221 225 225 224 225 223 220 217 219 227 226 214 199 192 204 194 174 186 192 191 183 162
328 315 296 280 273 267 261 251 245 250 255 264 263 244 260 244 212 211 217 224 225 216 211 205 198 197 199 198 199 202 203 205 206 205 206 208 211 215 219 221 222 224 225 225 225 224 223 220 217 225 230 222 203 205 206 183 184 201 188 192 200 180
331 325 307 283 268 261 256 246 238 239 246 258 257 236 233 217 208 209 213 224 230 218 210 205 200 198 199 198 199 204 206 206 205 202 203 207 210 214 218 219 220 221 223 225 224 222 224 224 219 220 226 220 209 221 217 178 194 218 202 195 195 188
332 333 321 295 268 255 250 243 234 230 237 245 243 233 217 205 216 216 206 210 226 220 209 207 205 201 200 199 200 205 210 211 208 201 200 206 210 212 215 217 217 217 219 223 223 223 223 223 222 222 223 220 215 223 222 199 204 219 224 218 202 191
329 334 329 307 276 255 244 239 232 224 228 233 230 225 214 211 217 217 212 210 220 221 211 208 207 203 202 202 201 204 210 214 215 207 201 205 208 210 214 216 217 217 218 221 222 224 224 222 222 223 219 218 218 216 215 213 212 215 227 241 239 214
326 333 333 315 287 262 244 237 232 223 220 223 224 222 214 212 214 218 220 216 216 220 214 210 209 206 203 201 200 206 212 216 218 214 206 204 207 211 214 216 217 217 219 221 222 224 225 223 224 224 221 221 222 218 216 216 215 218 223 234 252 252
327 331 332 320 298 277 253 237 232 224 218 219 222 223 218 211 213 220 219 218 223 225 218 218 219 216 208 199 201 211 216 217 219 218 212 205 208 213 214 216 217 218 219 222 224 225 226 228 227 227 226 226 226 224 222 221 219 222 225 226 236 249
328 327 326 322 304 289 271 245 234 225 219 218 217 219 221 216 212 215 217 221 230 229 223 224 225 221 209 201 204 212 216 219 220 221 215 204 208 216 216 217 218 220 220 222 226 227 226 228 228 227 227 226 227 227 226 226 225 223 224 227 231 236
330 324 319 318 307 293 282 260 240 229 221 217 215 216 222 222 213 210 215 221 226 228 228 228 223 217 208 202 203 208 216 221 219 221 217 204 206 216 219 220 221 222 223 224 226 228 227 228 228 227 229 229 229 228 227 228 228 226 224 226 231 233
331 324 317 311 307 296 285 275 249 231 224 219 218 218 219 222 219 216 218 222 223 223 226 226 219 213 206 202 204 210 215 219 218 219 215 204 205 215 218 221 224 224 225 226 227 228 227 227 228 228 229 230 230 230 230 231 232 232 231 229 231 232
330 324 319 309 300 294 287 282 262 235 226 221 219 219 220 223 224 224 224 227 224 218 221 223 219 216 210 204 205 211 213 216 218 214 209 206 208 216 220 223 226 227 227 229 229 230 229 228 228 229 229 229 231 231 233 234 235 235 235 234 235 236
332 328 327 316 297 287 285 281 269 241 228 224 221 220 222 224 224 228 230 230 225 215 217 223 223 223 218 209 206 209 210 214 213 206 209 213 211 214 221 226 228 229 231 232 231 231 231 230 229 230 231 231 231 232 234 236 238 238 240 241 242 244
332 334 334 325 301 277 275 275 267 245 229 227 225 221 222 224 225 228 232 233 231 218 213 218 222 225 220 212 208 208 212 213 207 204 214 218 213 214 221 228 230 231 232 233 233 233 233 233 233 232 231 232 231 232 235 238 240 241 243 245 246 247
Height
3164 3164 3164 3165 3165 3164 3164 3166 3168 3171 3173 3175 3174 3174 3174 3173 3172 3172 3173 3174 3175 3175 3176 3177 3178 3178 3179 3180 3180 3181 3181 3181 3181 3182 3182 3183 3183 3184 3184 3183 3183 3184 3184 3184 3184 3184 3184 3184 3183 3183 3182 3182 3181 3181 3181 3180 3180 3180 3179 3179 3179 3179
3164 3163 3163 3163 3163 3163 3164 3164 3165 3167 3169 3171 3173 3172 3172 3173 3172 3171 3172 3173 3173 3174 3175 3176 3177 3178 3179 3180 3181 3181 3181 3181 3182 3182 3183 3183 3183 3184 3185 3183 3183 3184 3184 3184 3184 3185 3184 3184 3184 3184 3183 3182 3182 3182 3182 3181 3181 3180 3180 3179 3179 3179
3163 3162 3162 3161 3162 3162 3162 3163 3163 3164 3165 3167 3169 3170 3170 3171 3171 3170 3170 3171 3172 3173 3174 3175 3176 3178 3178 3179 3180 3181 3182 3182 3182 3183 3183 3183 3184 3184 3185 3184 3184 3184 3184 3183 3183 3184 3185 3185 3185 3184 3184 3183 3183 3183 3183 3182 3181 3181 3180 3180 3180 3180
3161 3160 3160 3160 3160 3160 3160 3161 3162 3163 3163 3164 3166 3167 3168 3168 3169 3169 3169 3170 3171 3172 3172 3174 3175 3176 3178 3178 3179 3180 3182 3183 3182 3183 3184 3184 3184 3185 3185 3185 3184 3185 3184 3183 3182 3184 3185 3185 3185 3185 3184 3184 3184 3184 3183 3183 3182 3182 3181 3181 3180 3180
3158 3158 3158 3158 3159 3159 3158 3159 3161 3161 3161 3162 3163 3164 3165 3166 3166 3167 3169 3167 3168 3170 3171 3172 3173 3175 3176 3178 3179 3180 3181 3182 3183 3183 3184 3184 3185 3185 3185 3185 3185 3185 3185 3184 3184 3186 3186 3186 3186 3186 3185 3185 3185 3184 3184 3183 3183 3183 3182 3182 3181 3181
3155 3155 3155 3155 3156 3156 3156 3157 3158 3159 3160 3160 3160 3161 3162 3164 3164 3165 3167 3166 3165 3168 3170 3170 3172 3173 3175 3177 3178 3178 3180 3182 3182 3183 3184 3185 3185 3186 3186 3186 3186 3186 3186 3186 3186 3187 3186 3187 3186 3186 3186 3186 3186 3185 3185 3184 3184 3183 3183 3182 3182 3182
3153 3152 3152 3152 3152 3153 3154 3155 3155 3156 3158 3158 3157 3158 3158 3160 3162 3162 3164 3165 3163 3164 3168 3168 3170 3172 3173 3175 3177 3177 3179 3181 3182 3184 3184 3185 3186 3186 3186 3186 3186 3186 3187 3187 3187 3188 3187 3187 3187 3187 3187 3186 3186 3186 3185 3185 3184 3184 3184 3183 3182 3183
3152 3150 3149 3149 3148 3149 3151 3152 3153 3154 3155 3155 3155 3155 3155 3156 3159 3161 3161 3164 3163 3161 3163 3167 3168 3170 3172 3174 3176 3177 3179 3180 3182 3183 3184 3185 3186 3186 3186 3186 3186 3186 3187 3187 3188 3188 3188 3188 3188 3187 3187 3187 3187 3187 3186 3186 3185 3185 3184 3184 3184 3184
3150 3148 3147 3146 3146 3146 3148 3149 3151 3151 3151 3151 3152 3152 3152 3153 3155 3158 3158 3160 3163 3161 3160 3163 3167 3169 3170 3172 3173 3175 3177 3179 3181 3182 3184 3185 3185 3186 3186 3186 3186 3187 3187 3187 3188 3188 3188 3188 3188 3188 3188 3188 3187 3188 3187 3187 3186 3186 3185 3185 3185 3185
3148 3146 3145 3145 3144 3144 3144 3146 3147 3148 3148 3148 3149 3150 3151 3152 3153 3155 3155 3157 3160 3161 3159 3160 3164 3167 3168 3170 3171 3173 3176 3178 3179 3181 3183 3184 3185 3186 3186 3186 3187 3187 3187 3187 3188 3188 3189 3188 3188 3188 3188 3188 3188 3188 3188 3187 3187 3187 3186 3186 3186 3186
3145 3144 3144 3143 3142 3143 3143 3143 3144 3144 3145 3145 3146 3147 3148 3149 3151 3152 3154 3155 3155 3158 3159 3158 3161 3165 3167 3169 3170 3172 3174 3176 3178 3180 3182 3184 3185 3185 3186 3186 3186 3186 3187 3187 3188 3189 3189 3189 3189 3189 3189 3189 3188 3188 3188 3188 3188 3188 3187 3187 3187 3187
3143 3142 3142 3141 3140 3141 3141 3141 3140 3140 3141 3141 3142 3143 3144 3145 3147 3149 3151 3153 3152 3154 3157 3156 3158 3163 3166 3169 3170 3171 3173 3175 3177 3178 3181 3183 3184 3185 3185 3186 3186 3186 3186 3187 3188 3188 3189 3189 3189 3189 3189 3189 3189 3189 3189 3189 3189 3189 3188 3188 3188 3188
3142 3141 3140 3139 3138 3138 3139 3138 3138 3137 3137 3137 3139 3140 3143 3143 3143 3144 3148 3150 3150 3151 3152 3152 3156 3161 3163 3167 3169 3171 3172 3174 3176 3177 3180 3182 3183 3184 3185 3185 3185 3186 3186 3186 3187 3188 3189 3189 3189 3189 3190 3190 3189 3189 3189 3189 3189 3189 3189 3189 3189 3189
3140 3139 3138 3137 3137 3136 3136 3136 3135 3134 3134 3134 3136 3137 3139 3139 3138 3141 3144 3146 3147 3149 3149 3149 3154 3158 3161 3165 3167 3169 3171 3174 3175 3176 3179 3181 3182 3184 3184 3185 3185 3185 3185 3185 3186 3188 3188 3189 3189 3189 3190 3190 3190 3190 3190 3190 3189 3189 3190 3190 3190 3189
3138 3137 3136 3136 3135 3134 3134 3133 3132 3132 3132 3132 3133 3133 3134 3134 3135 3138 3141 3142 3144 3146 3148 3149 3152 3156 3160 3163 3165 3166 3169 3172 3174 3175 3177 3179 3181 3182 3183 3184 3184 3184 3184 3185 3186 3187 3188 3188 3189 3189 3190 3190 3190 3190 3190 3190 3190 3190 3190 3190 3190 3190
3136 3135 3134 3134 3133 3133 3132 3131 3130 3130 3130 3130 3130 3130 3130 3131 3132 3134 3137 3140 3141 3144 3147 3149 3152 3155 3158 3161 3163 3165 3167 3169 3172 3174 3176 3178 3180 3181 3182 3183 3184 3183 3183 3183 3185 3187 3188 3188 3189 3189 3190 3190 3190 3190 3191 3191 3190 3190 3190 3190 3191 3191
3135 3134 3132 3132 3131 3131 3131 3130 3129 3128 3128 3128 3127 3127 3127 3129 3131 3131 3134 3136 3138 3141 3145 3149 3151 3154 3156 3159 3161 3163 3165 3167 3170 3172 3174 3177 3178 3180 3181 3182 3183 3183 3183 3182 3182 3185 3188 3188 3189 3189 3190 3190 3190 3190 3191 3191 3191 3190 3190 3191 3191 3191
3133 3132 3131 3130 3129 3129 3129 3129 3128 3126 3126 3125 3125 3125 3124 3126 3128 3128 3129 3132 3136 3138 3141 3146 3149 3152 3155 3157 3159 3161 3162 3164 3167 3170 3173 3175 3177 3178 3180 3181 3181 3182 3183 3182 3181 3184 3187 3187 3188 3189 3190 3190 3190 3190 3191 3191 3191 3191 3191 3191 3191 3191
3131 3130 3129 3128 3128 3127 3127 3127 3126 3125 3124 3123 3123 3122 3122 3122 3124 3125 3126 3129 3133 3135 3138 3143 3147 3149 3152 3154 3156 3158 3159 3162 3164 3168 3171 3173 3175 3177 3178 3179 3180 3180 3182 3182 3181 3184 3186 3186 3187 3188 3189 3189 3189 3190 3190 3191 3191 3191 3191 3191 3191 3191
3129 3128 3128 3127 3126 3126 3125 3125 3125 3123 3123 3122 3121 3120 3119 3120 3123 3124 3125 3126 3129 3132 3135 3140 3144 3147 3150 3152 3154 3155 3157 3159 3162 3165 3168 3170 3173 3175 3177 3178 3179 3179 3180 3181 3181 3183 3184 3185 3187 3187 3188 3189 3189 3189 3190 3190 3191 3191 3191 3191 3191 3191
3126 3125 3125 3125 3124 3124 3123 3123 3123 3122 3121 3120 3119 3118 3117 3119 3121 3122 3123 3125 3127 3129 3132 3137 3141 3144 3147 3150 3151 3152 3154 3157 3160 3162 3165 3168 3171 3173 3175 3176 3177 3178 3178 3180 3181 3182 3183 3184 3185 3186 3187 3188 3188 3188 3189 3189 3190 3190 3191 3191 3191 3191
3123 3122 3122 3122 3122 3121 3121 3120 3120 3120 3119 3119 3118 3116 3115 3116 3117 3119 3122 3123 3125 3128 3130 3134 3138 3141 3144 3146 3148 3150 3153 3155 3157 3160 3163 3166 3168 3170 3173 3175 3176 3177 3177 3178 3180 3181 3182 3183 3184 3184 3185 3186 3186 3187 3187 3188 3189 3190 3190 3191 3191 3191
3120 3119 3118 3119 3119 3119 3118 3118 3118 3118 3117 3117 3116 3115 3114 3113 3114 3116 3119 3121 3123 3125 3128 3131 3135 3139 3141 3144 3146 3148 3151 3153 3154 3157 3160 3163 3165 3167 3171 3173 3175 3176 3177 3178 3179 3180 3181 3181 3182 3182 3183 3183 3183 3184 3186 3186 3187 3189 3190 3190 3191 3191
3117 3116 3115 3115 3116 3116 3116 3116 3115 3115 3115 3114 3114 3113 3113 3112 3112 3114 3117 3119 3121 3123 3126 3129 3132 3136 3139 3141 3144 3146 3148 3150 3152 3154 3157 3160 3163 3165 3168 3171 3173 3174 3176 3177 3178 3180 3180 3180 3181 3181 3182 3182 3181 3182 3184 3184 3185 3187 3189 3190 3190 3191
3114 3112 3112 3112 3113 3113 3113 3113 3113 3113 3112 3111 3111 3112 3111 3110 3110 3112 3115 3118 3120 3122 3124 3127 3130 3133 3136 3138 3140 3143 3145 3147 3149 3151 3154 3157 3160 3163 3165 3169 3172 3172 3174 3176 3177 3178 3179 3179 3181 3180 3181 3182 3181 3180 3181 3183 3185 3186 3188 3189 3190 3190
3112 3110 3109 3109 3109 3110 3110 3110 3111 3111 3110 3109 3109 3110 3109 3109 3109 3111 3114 3117 3119 3120 3121 3124 3127 3130 3133 3135 3137 3139 3142 3144 3146 3148 3150 3153 3156 3160 3162 3166 3169 3170 3172 3174 3174 3176 3177 3178 3179 3179 3180 3181 3180 3181 3180 3181 3184 3185 3187 3188 3189 3190
3110 3108 3107 3106 3107 3107 3107 3107 3108 3109 3109 3108 3108 3108 3108 3108 3109 3110 3112 3114 3116 3117 3119 3121 3124 3127 3130 3133 3135 3138 3140 3142 3143 3144 3147 3151 3154 3157 3161 3164 3166 3168 3170 3171 3172 3173 3175 3175 3176 3178 3179 3178 3179 3181 3180 3180 3183 3184 3185 3187 3187 3188
3108 3106 3105 3104 3104 3105 3105 3105 3105 3106 3107 3107 3107 3107 3107 3108 3108 3108 3109 3111 3113 3115 3117 3119 3122 3125 3129 3131 3133 3136 3139 3141 3142 3143 3146 3150 3152 3155 3158 3161 3162 3165 3167 3168 3169 3170 3172 3173 3174 3176 3177 3177 3178 3179 3179 3180 3182 3183 3183 3185 3186 3187
3106 3105 3103 3102 3102 3102 3103 3103 3103 3104 3105 3105 3105 3105 3106 3107 3108 3108 3108 3109 3110 3112 3115 3118 3120 3122 3126 3128 3132 3135 3137 3139 3142 3143 3144 3147 3150 3153 3155 3157 3160 3163 3164 3165 3167 3168 3169 3171 3174 3175 3176 3177 3177 3178 3179 3181 3182 3182 3183 3183 3185 3185
3104 3103 3102 3101 3100 3100 3101 3101 3101 3102 3103 3103 3104 3104 3105 3105 3106 3107 3107 3107 3107 3109 3113 3117 3118 3120 3123 3126 3130 3133 3136 3138 3141 3143 3143 3143 3146 3150 3153 3155 3158 3160 3162 3164 3166 3166 3166 3169 3171 3173 3173 3174 3176 3177 3179 3181 3181 3182 3183 3183 3183 3183
3103 3102 3101 3100 3099 3098 3099 3099 3099 3100 3101 3101 3102 3103 3103 3104 3104 3105 3106 3106 3106 3108 3111 3113 3115 3117 3120 3124 3128 3130 3134 3136 3139 3142 3142 3141 3144 3147 3150 3153 3155 3158 3160 3162 3163 3164 3165 3166 3168 3170 3171 3172 3175 3177 3179 3180 3181 3182 3182 3183 3183 3182
3102 3100 3099 3098 3097 3097 3097 3097 3097 3098 3099 3100 3101 3101 3102 3102 3102 3103 3105 3105 3106 3107 3108 3110 3112 3114 3117 3120 3124 3128 3131 3134 3137 3139 3140 3140 3142 3145 3147 3150 3153 3155 3158 3160 3162 3164 3165 3166 3167 3169 3171 3172 3174 3176 3177 3179 3180 3181 3182 3183 3183 3183
3100 3099 3098 3097 3096 3095 3095 3095 3095 3096 3097 3098 3099 3100 3100 3101 3101 3101 3103 3104 3105 3106 3106 3107 3109 3112 3115 3117 3121 3125 3128 3131 3133 3136 3138 3139 3140 3143 3145 3148 3151 3153 3155 3158 3160 3162 3164 3165 3166 3168 3170 3171 3173 3174 3176 3177 3178 3180 3181 3182 3182 3183
3099 3098 3096 3095 3095 3094 3093 3093 3094 3094 3095 3096 3097 3098 3099 3100 3100 3100 3101 3102 3103 3104 3105 3105 3107 3110 3112 3115 3118 3122 3125 3128 3130 3133 3135 3136 3137 3141 3144 3146 3148 3150 3153 3155 3157 3159 3162 3163 3164 3166 3167 3169 3171 3173 3174 3175 3177 3178 3180 3181 3182 3183
3098 3097 3095 3094 3093 3092 3092 3092 3092 3092 3093 3094 3095 3096 3097 3098 3099 3099 3099 3100 3101 3102 3103 3104 3106 3108 3110 3113 3116 3119 3122 3125 3127 3130 3132 3132 3135 3139 3142 3144 3146 3148 3150 3152 3154 3157 3159 3161 3162 3164 3165 3167 3169 3171 3172 3174 3175 3177 3178 3179 3180 3181
3097 3095 3094 3092 3091 3091 3090 3090 3090 3090 3091 3092 3093 3094 3095 3096 3097 3098 3098 3099 3099 3100 3102 3103 3105 3107 3108 3110 3113 3116 3119 3122 3124 3127 3129 3131 3133 3137 3140 3142 3144 3146 3148 3150 3152 3154 3156 3158 3160 3161 3162 3164 3166 3168 3170 3171 3173 3175 3176 3177 3179 3180
3095 3094 3092 3091 3089 3089 3089 3089 3089 3089 3089 3090 3091 3092 3093 3095 3096 3096 3097 3097 3098 3098 3100 3101 3102 3104 3105 3108 3111 3114 3116 3119 3121 3124 3127 3129 3131 3134 3137 3140 3142 3144 3146 3148 3150 3152 3153 3155 3156 3158 3159 3161 3162 3165 3167 3169 3171 3172 3174 3175 3177 3178